Tracking 23885 objects as of 28-Nov-2021
HD Live streaming from Space Station
objects crossing your sky now

ONEWEB-0385

Track ONEWEB-0385 now!
10-day predictions
ONEWEB-0385 is classified as:


NORAD ID: 49311
Int'l Code: 2021-090AJ
Perigee: 592.7 km
Apogee: 611.5 km
Inclination: 87.2 °
Period: 96.6 minutes
Semi major axis: 6973 km
RCS: Unknown
Launch date: October 14, 2021
Source: United Kingdom (UK)
Launch site: VOSTOCHNY COSMODROME (VOSTO)
aabbcc
Your satellite tracking list
Your tracking list is empty




NASA's NSSDC Master Catalog

Two Line Element Set (TLE):
1 49311U 21090AJ  21332.58334491 -.00020732  00000-0 -21088-2 0  9995
2 49311  87.1949 277.5578 0013472  87.6896  71.3478 14.90951052  8150
Source of the keplerian elements: AFSPC